TimeEST,TemperatureF,Dew PointF,Humidity,Sea Level PressureIn,VisibilityMPH,Wind Direction,Wind SpeedMPH,Gust SpeedMPH,PrecipitationIn,Events,Conditions,WindDirDegrees,DateUTC
12:51 AM,16.0,8.1,71,30.10,10.0,WSW,4.6,-,N/A,,Overcast,250,2011-12-19 05:51:00
1:51 AM,19.0,10.9,71,30.09,10.0,WSW,5.8,-,N/A,,Overcast,250,2011-12-19 06:51:00
2:51 AM,19.9,12.0,71,30.06,10.0,SW,10.4,-,N/A,,Overcast,220,2011-12-19 07:51:00
3:51 AM,21.0,14.0,74,30.02,10.0,SW,10.4,-,N/A,,Scattered Clouds,230,2011-12-19 08:51:00
4:51 AM,23.0,16.0,74,29.99,10.0,SW,13.8,-,N/A,,Overcast,220,2011-12-19 09:51:00
5:51 AM,23.0,17.1,78,29.97,10.0,SSW,17.3,-,N/A,,Overcast,210,2011-12-19 10:51:00
6:51 AM,24.1,18.0,77,29.95,10.0,SW,12.7,19.6,N/A,,Overcast,220,2011-12-19 11:51:00
7:51 AM,26.1,19.0,75,29.91,10.0,SW,11.5,20.7,N/A,,Overcast,220,2011-12-19 12:51:00
8:51 AM,26.1,19.0,75,29.87,10.0,SW,12.7,-,N/A,,Clear,220,2011-12-19 13:51:00
9:51 AM,28.9,21.0,72,29.85,10.0,SSW,17.3,24.2,N/A,,Scattered Clouds,210,2011-12-19 14:51:00
10:51 AM,32.0,24.1,73,29.81,10.0,SSW,16.1,26.5,N/A,,Overcast,210,2011-12-19 15:51:00
11:09 AM,33.8,24.8,70,29.72,10.0,SW,16.1,27.6,N/A,,Overcast,220,2011-12-19 16:09:00
11:51 AM,34.0,26.1,73,29.78,10.0,SW,16.1,26.5,N/A,,Overcast,220,2011-12-19 16:51:00
12:51 PM,35.6,26.6,70,29.69,10.0,SW,13.8,24.2,N/A,,Overcast,230,2011-12-19 17:51:00
1:51 PM,36.0,28.0,73,29.75,10.0,SW,11.5,17.3,N/A,,Overcast,230,2011-12-19 18:51:00
2:51 PM,37.0,28.0,70,29.75,10.0,WSW,12.7,21.9,N/A,,Overcast,240,2011-12-19 19:51:00
3:51 PM,35.1,30.0,82,29.77,5.0,SW,11.5,20.7,N/A,,Haze,230,2011-12-19 20:51:00
4:10 PM,35.6,30.2,81,29.71,2.5,SW,12.7,21.9,N/A,,Overcast,230,2011-12-19 21:10:00
4:31 PM,33.8,32.0,93,29.72,2.5,SW,11.5,19.6,0.00,,Overcast,230,2011-12-19 21:31:00
4:51 PM,34.0,32.0,92,29.78,2.5,SW,10.4,-,0.00,,Overcast,230,2011-12-19 21:51:00
5:05 PM,33.8,33.8,100,29.72,3.0,SW,10.4,17.3,0.00,,Overcast,230,2011-12-19 22:05:00
5:19 PM,33.8,33.8,100,29.72,2.0,WSW,9.2,-,0.00,Snow,Light Snow,240,2011-12-19 22:19:00
5:36 PM,33.8,33.8,100,29.72,2.5,SW,8.1,-,0.01,Snow,Light Snow,230,2011-12-19 22:36:00
5:51 PM,34.0,33.1,96,29.78,2.5,SW,9.2,17.3,0.01,Snow,Light Snow,230,2011-12-19 22:51:00
6:04 PM,33.8,33.8,100,29.73,3.0,SW,8.1,-,0.00,Snow,Light Snow,230,2011-12-19 23:04:00
6:51 PM,35.1,33.1,92,29.79,5.0,WSW,9.2,18.4,0.01,,Overcast,240,2011-12-19 23:51:00
7:51 PM,35.1,34.0,96,29.80,7.0,WSW,8.1,16.1,0.01,Rain,Light Rain,250,2011-12-20 00:51:00
8:51 PM,35.1,33.1,92,29.81,4.0,West,8.1,21.9,0.01,Rain,Light Rain,270,2011-12-20 01:51:00
9:28 PM,33.8,30.2,87,29.79,1.8,NW,11.5,19.6,0.01,Snow,Light Snow,310,2011-12-20 02:28:00
9:36 PM,32.0,30.2,93,29.79,2.0,NNW,6.9,20.7,0.01,Snow,Light Snow,330,2011-12-20 02:36:00
9:44 PM,32.0,28.4,87,29.79,6.0,NNW,8.1,-,0.01,Snow,Light Snow,330,2011-12-20 02:44:00
9:51 PM,32.0,28.9,88,29.85,9.0,Variable,6.9,-,0.01,,Overcast,0,2011-12-20 02:51:00
10:05 PM,32.0,28.4,87,29.80,9.0,Variable,6.9,18.4,N/A,,Overcast,0,2011-12-20 03:05:00
10:51 PM,30.2,28.4,93,29.82,5.0,NW,8.1,-,N/A,,Overcast,320,2011-12-20 03:51:00
11:26 PM,30.2,28.4,93,29.84,2.0,North,6.9,-,0.00,Snow,Light Snow,350,2011-12-20 04:26:00
11:37 PM,30.2,26.6,86,29.84,7.0,NNW,9.2,-,0.00,,Overcast,330,2011-12-20 04:37:00
11:51 PM,30.0,26.1,85,29.90,6.0,Variable,5.8,18.4,0.00,Snow,Light Snow,0,2011-12-20 04:51:00